Regional Weather Roundup
Issued by NWS Sterling, VA

Home | Current Version | Previous Version | Text Only | Print | Product List | Glossary On
Versions: 1 2 3 4 5 6 7 8 9 10 11 12 13 14 15 16 17 18 19 20 21 22 23 24 25 26 27 28
000
ASUS41 KLWX 201411
RWRLWX

REGIONAL WEATHER ROUNDUP
NATIONAL WEATHER SERVICE BALTIMORE MD/WASHINGTON DC
1000 AM EDT SUN AUG 20 2017

Note: "FAIR" indicates few or no clouds below 12,000 feet
with no significant weather and/or obstructions to visibility.
 TC=TEMPERATURE CELSIUS

 * =Non NWS site. Station does not report precipitation (e.g. rain,
    snow, etc.), thunder, or fog.

DCZ001-MDZ009-015-VAZ040>042-051-053>054-201500-
WASHINGTON METRO

CITY           SKY/WX    TMP DP  RH WIND       PRES   REMARKS
WASHINGTON NAT SUNNY     79  63  57 VRB6      30.13R
DULLES         MOSUNNY   76  63  64 N6        30.14R
ANDREWS AFB    SUNNY     76  61  59 N6        30.12R
FT BELVOIR     SUNNY     79  63  58 NW3       30.13R
QUANTICO       SUNNY     79  66  64 NE8       30.14R
COLLEGE PARK*  SUNNY     75  59  57 N5        30.12R
LEESBURG*      SUNNY     75  64  69 N6        30.15R
MANASSAS*      SUNNY     77  64  64 N5        30.14R
GAITHERSBURG*  SUNNY     74  62  66 VRB3      30.16R

$$

MDZ006>007-011-014-201500-
BALTIMORE METRO

CITY           SKY/WX    TMP DP  RH WIND       PRES   REMARKS
BWI AIRPORT    MOSUNNY   76  62  62 VRB6      30.12R
MD SCIENCE CTR   N/A     77  59  53 MISG      30.13S
MARTIN STATE   SUNNY     75  64  69 NW3       30.13R
ANNAPOLIS      SUNNY     79  65  62 N6        30.11R
FORT MEADE*    SUNNY     75  59  57 NW3       30.15R

$$

MDZ012-015-019>023-201500-
MARYLAND EASTERN SHORE

CITY           SKY/WX    TMP DP  RH WIND       PRES   REMARKS
OCEAN CITY     SUNNY     79  67  66 N10       30.10S
SALISBURY      SUNNY     78  66  66 N7        30.10R
BAY BRIDGE AP* SUNNY     75  61  60 N8        30.12R
CAMBRIDGE*     SUNNY     77  64  65 NE6       30.11R

$$

MDZ017>025-201500-
SOUTHERN MARYLAND

CITY           SKY/WX    TMP DP  RH WIND       PRES   REMARKS
PATUXENT RIVER MOSUNNY   79  69  71 N12       30.11R
ST INIGOES     SUNNY     80  68  66 N8        30.10R
LEONARDTOWN*   SUNNY     77  64  65 CALM      30.13S

$$

MDZ003>005-201500-
NORTH CENTRAL MARYLAND

CITY           SKY/WX    TMP DP  RH WIND       PRES   REMARKS
FREDERICK*     SUNNY     75  61  60 CALM      30.16R
HAGERSTOWN APT SUNNY     73  61  65 CALM      30.14R
WESTMINSTER*   SUNNY     72  63  73 NW5       30.14R

$$

MDZ501>502-201500-
WESTERN MARYLAND

CITY           SKY/WX    TMP DP  RH WIND       PRES   REMARKS
OAKLAND*       SUNNY     64  57  77 CALM      30.19R
CUMBERLAND*    SUNNY     70  63  78 CALM      30.19S

$$

VAZ025>031-201500-
SHENANDOAH VALLEY

CITY           SKY/WX    TMP DP  RH WIND       PRES   REMARKS
WINCHESTER*    SUNNY     72  59  64 NE5       30.15R
FRONT ROYAL*   SUNNY     70  64  83 CALM      30.15R
LURAY*         SUNNY     72  64  78 N6        30.16R
NEW MARKET*    SUNNY     74  65  74 NE5       30.15R
STAUNTON*      SUNNY     73  65  76 CALM      30.18S
WAYNESBORO*    SUNNY     76  66  71 CALM      30.16S

$$

WVZ021-048>050-054>055-201500-
EASTERN WEST VIRGINIA PANHANDLE

CITY           SKY/WX    TMP DP  RH WIND       PRES   REMARKS
MARTINSBURG    SUNNY     74  59  59 N5        30.14R
PETERSBURG*    SUNNY     74  66  76 CALM      30.16R

$$

VAZ036>039-050-201500-
CENTRAL FOOTHILLS

CITY           SKY/WX    TMP DP  RH WIND       PRES   REMARKS
CHARLOTTESVILL SUNNY     77  65  66 NE7       30.15R
CULPEPER*      SUNNY     78  66  66 N6        30.15R
ORANGE*        SUNNY     75  63  64 CALM      30.15R
GORDONSVILLE*  SUNNY     76  66  70 E5        30.14R
WARRENTON*     SUNNY     77  62  60 NE8       30.14R

$$

VAZ055>057-201500-
NORTH AND CENTRAL PIEDMONT

CITY           SKY/WX    TMP DP  RH WIND       PRES   REMARKS
FREDERICKSBRG* SUNNY     77  65  67 NE7       30.12R
STAFFORD*      SUNNY     76  66  71 N6        30.17R

$$

NCZ024-NYZ072-PAZ021-071-VAZ022-071-201500-
OTHER REGIONAL OBSERVATIONS

CITY           SKY/WX    TMP DP  RH WIND       PRES   REMARKS
NEW YORK CITY  MOSUNNY   74  59  59 NW8       30.07R
PHILADELPHIA   MOSUNNY   75  59  57 NW8       30.09S
PITTSBURGH     MOSUNNY   64  64 100 SE3       30.15R FOG
ROANOKE        SUNNY     80  65  59 E3        30.17S
RICHMOND       SUNNY     80  68  66 N9        30.11R
RALEIGH        MOSUNNY   84  69  60 CALM      30.11R

$$

ANZ530>537-201500-
MARINE OBSERVATIONS

STATION/POSITION TIME  TEMP    WIND        PRES
                       AIR SEA DIR/SP/G
                 (UTC) (F)     (DEG/KT/KT) (MB)
THOMAS PT LIGHT  1400   75 80  360/  9/ 11   N/A
BALT KEY BRIDGE  1348   75     350/  8/ 10 1019.8R
COVE POINT       1348   76      20/ 10/ 12 1020.3R
LEWISETTA        1348   79 83   50/  5/  7 1019.4R
SOLOMONS ISLAND  1348   77 81   10/  7/  9   N/A
PINEY POINT      1348           50/  4/  6   N/A

$$





USA.gov is the U.S. government's official web portal to all federal, state and local government web resources and services.